Regional Weather Roundup
Issued by NWS

Home | Current Version | Previous Version | Text Only | Print | Product List | Glossary On
Versions: 1 2 3 4 5 6 7 8 9 10 11 12 13 14 15 16 17 18 19 20 21 22 23 24 25 26 27 28 29 30 31 32 33 34 35 36 37 38 39 40 41 42 43 44 45 46 47 48 49 50
000
ASUS44 KFWD 310015
RWRTX
NORTH TEXAS HOURLY WEATHER ROUNDUP
NATIONAL WEATHER SERVICE FORT WORTH TX
600 PM CST FRI JAN 30 2015

NOTE: "FAIR" INDICATES FEW OR NO CLOUDS BELOW 12,000 FEET WITH NO
SIGNIFICANT WEATHER AND/OR OBSTRUCTIONS TO VISIBILITY.

TXZ118-119-310100-
DALLAS/FORT WORTH METROPLEX

CITY           SKY/WX    TMP DP  RH WIND       PRES   REMARKS
DFW AIRPORT    CLOUDY    54  29  38 E7        30.33F
6HR MIN TEMP:  50; 6HR MAX TEMP:  57;

DALLAS LOVE    CLOUDY    55  28  35 E7        30.34S
6HR MIN TEMP:  51; 6HR MAX TEMP:  57;

FTW MEACHAM    CLOUDY    55  30  38 E8        30.32F
DAL-EXECUTIVE  MOCLDY    56  30  37 E6        30.33S
6HR MIN TEMP:  52; 6HR MAX TEMP:  59;

FTW-ALLIANCE   CLOUDY    53  29  39 E6        30.33F
6HR MIN TEMP:  49; 6HR MAX TEMP:  56;

FTW-SPINKS     CLEAR     55  30  38 E7        30.34F
ARLINGTON      CLOUDY    56  29  35 E7        30.33F
6HR MIN TEMP:  52; 6HR MAX TEMP:  58;

ADDISON        CLOUDY    55  27  33 E6        30.34S
MESQUITE       CLOUDY    54  28  37 CALM      30.35S
LANCASTER      MOCLDY    53  33  47 E3        30.35S
6HR MIN TEMP:  49; 6HR MAX TEMP:  55;

$$

TXZ091>094-102>105-117-120-121-131>134-310100-
NORTH CENTRAL TEXAS

CITY           SKY/WX    TMP DP  RH WIND       PRES   REMARKS
SHRMAN/DENISON MOCLDY    53  33  47 E3        30.36S
6HR MIN TEMP:  49; 6HR MAX TEMP:  55;

GAINESVILLE    CLOUDY    51  32  48 NE3       30.37S
6HR MIN TEMP:  48; 6HR MAX TEMP:  54;

BOWIE          CLOUDY    51  30  44 E3        30.33F
6HR MIN TEMP:  48; 6HR MAX TEMP:  56;

BRIDGEPORT     CLOUDY    53  33  46 E5        30.34F
6HR MIN TEMP:  51; 6HR MAX TEMP:  58;

DECATUR        CLOUDY    51  28  40 E7        30.33S
6HR MIN TEMP:  47; 6HR MAX TEMP:  55;

DENTON         MOCLDY    53  30  41 SE3       30.34F
6HR MIN TEMP:  49; 6HR MAX TEMP:  56;

MCKINNEY       PTCLDY    53  28  38 E3        30.35R
6HR MIN TEMP:  51; 6HR MAX TEMP:  57;

GREENVILLE     MOCLDY    52  30  43 CALM      30.35F
ROCKWALL       MOCLDY    53  32  45 E5        30.33S
6HR MIN TEMP:  51; 6HR MAX TEMP:  57;

TERRELL        MOCLDY    54  31  41 NE6       30.35F
6HR MIN TEMP:  53; 6HR MAX TEMP:  59;

WAXAHACHIE     CLOUDY    53  34  47 E5        30.35S
6HR MIN TEMP:  49; 6HR MAX TEMP:  56;

CLEBURNE       CLOUDY    54  30  40 E9        30.33F
GRANBURY       CLOUDY    55  33  43 E5        30.32F
6HR MIN TEMP:  51; 6HR MAX TEMP:  56;

$$

TXZ083>090-098>101-113>116-127>130-139>142-154-155-310100-
WESTERN NORTH TEXAS

CITY           SKY/WX    TMP DP  RH WIND       PRES   REMARKS
WICHITA FALLS  CLOUDY    48  31  51 NE8       30.32F
6HR MIN TEMP:  46; 6HR MAX TEMP:  50;

WF-KICKAPOO    CLOUDY    43  24  46 NE7       30.33F WCI  38
6HR MIN TEMP:  40; 6HR MAX TEMP:  45;

VERNON           N/A    N/A N/A N/A E6        30.33F
ABILENE        CLOUDY    50  31  48 E10       30.29S
6HR MIN TEMP:  45; 6HR MAX TEMP:  51;

ABILENE-DYESS  CLOUDY    50  32  50 E10       30.27F
6HR MIN TEMP:  45; 6HR MAX TEMP:  51;

BRECKENRIDGE   CLOUDY    52  31  44 SE5       30.30S
6HR MIN TEMP:  49; 6HR MAX TEMP:  54;

GRAHAM         CLOUDY    53  32  45 CALM      30.29F
6HR MIN TEMP:  51; 6HR MAX TEMP:  55;

MINERAL WELLS  CLOUDY    53  30  41 E7        30.29F
6HR MIN TEMP:  50; 6HR MAX TEMP:  56;

STEPHENVILLE   CLOUDY    50  33  50 E3        30.33S
6HR MIN TEMP:  48; 6HR MAX TEMP:  52;

COMANCHE       CLOUDY    48  34  57 E8        30.30S
6HR MIN TEMP:  47; 6HR MAX TEMP:  52;

BROWNWOOD      CLOUDY    48  32  53 E7        30.30S
COLEMAN        MOCLDY    49  35  60 E8        30.29S
6HR MIN TEMP:  47; 6HR MAX TEMP:  52;

$$

TXZ143>147-156>162-174-175-310100-
CENTRAL TEXAS

CITY           SKY/WX    TMP DP  RH WIND       PRES   REMARKS
WACO           CLOUDY    52  35  52 NE6       30.32S
6HR MIN TEMP:  50; 6HR MAX TEMP:  55;

WACO-MCGREGOR  MOCLDY    54  34  47 N3        30.33S
6HR MIN TEMP:  50; 6HR MAX TEMP:  55;

HILLSBORO      CLOUDY    54  31  40 E6        30.33S
6HR MIN TEMP:  51; 6HR MAX TEMP:  56;

CORSICANA      MOCLDY    56  31  38 NE5       30.34S
6HR MIN TEMP:  51; 6HR MAX TEMP:  59;

MEXIA          MOCLDY    55  32  42 CALM      30.31S
6HR MIN TEMP:  50; 6HR MAX TEMP:  58;

HEARNE         PTCLDY    56  35  44 NE5       30.32S
6HR MIN TEMP:  53; 6HR MAX TEMP:  61;

CAMERON        PTCLDY    55  38  51 NE3       30.31R
6HR MIN TEMP:  53; 6HR MAX TEMP:  59;

TEMPLE         MOCLDY    52  34  50 NE6       30.30F
6HR MIN TEMP:  52; 6HR MAX TEMP:  55;

KILLEEN        MOCLDY    51  34  53 E8        30.30F
6HR MIN TEMP:  48; 6HR MAX TEMP:  53;

KILLEEN-SKYLRK MOCLDY    52  32  46 E6        30.28F
6HR MIN TEMP:  52; 6HR MAX TEMP:  54;

FORT HOOD      MOCLDY    51  35  54 NE6       30.30S
6HR MIN TEMP:  49; 6HR MAX TEMP:  53;

GATESVILLE     MOCLDY    50  36  57 CALM      30.33F
HAMILTON       CLOUDY    49  33  53 E9        30.31F
6HR MIN TEMP:  47; 6HR MAX TEMP:  51;

LAMPASAS       MOCLDY    50  38  62 NE5       30.29S
6HR MIN TEMP:  48; 6HR MAX TEMP:  53;

$$

TXZ095>097-106>112-122>126-135>138-148>153-164>167-310100-
EAST TEXAS

CITY           SKY/WX    TMP DP  RH WIND       PRES   REMARKS
PARIS          MOCLDY    50  28  43 E5        30.38S
6HR MIN TEMP:  48; 6HR MAX TEMP:  55;

SULPHUR SPRNGS MOCLDY    52  29  42 E5        30.38S
6HR MIN TEMP:  50; 6HR MAX TEMP:  56;

MOUNT PLEASANT MOCLDY    49  27  41 E6        30.38S
6HR MIN TEMP:  49; 6HR MAX TEMP:  57;

GILMER         MOCLDY    51  29  41 CALM      30.37R
6HR MIN TEMP:  48; 6HR MAX TEMP:  56;

MINEOLA        MOCLDY    52  27  37 CALM      30.37S
TYLER          MOCLDY    54  28  36 E7        30.34S
6HR MIN TEMP:  52; 6HR MAX TEMP:  60;

LONGVIEW       MOCLDY    51  30  44 NE6       30.36R
6HR MIN TEMP:  50; 6HR MAX TEMP:  59;

MARSHALL       MOCLDY    52  35  53 CALM      30.39S
6HR MIN TEMP:  52; 6HR MAX TEMP:  58;

ATHENS         MOCLDY    54  28  37 E3        30.33S
PALESTINE      MOCLDY    56  32  39 NE5       30.34S
JACKSONVILLE   MOCLDY    53  31  41 MISG      30.35S
HENDERSON      MOCLDY    52  30  42 NE3       30.36S
6HR MIN TEMP:  51; 6HR MAX TEMP:  58;

NACOGDOCHES    MOCLDY    54  30  40 E5        30.35S
6HR MIN TEMP:  52; 6HR MAX TEMP:  59;

LUFKIN         MOCLDY    54  34  46 E5        30.34S
6HR MIN TEMP:  54; 6HR MAX TEMP:  63;

$$

SUPPLEMENTAL OBSERVATIONS (CENTRAL)

CITY           SKY/WX    TMP DP  RH WIND       PRES   REMARKS
LAKE TEXOMA      N/A     54  30  40 SE3         N/A
CADDO GRASSLND   N/A     52  28  40 E2          N/A
PAT MAYSE LAKE   N/A     52  30  43 N3          N/A
ATHENS           N/A     54  27  35 E5          N/A
PALESTINE        N/A     55  32  41 E1          N/A
MCGREGOR         N/A     52  34  50 E1          N/A
TEMPLE           N/A     52  34  50 NE5         N/A
$$

SUPPLEMENTAL OBSERVATIONS (WEST)

CITY           SKY/WX    TMP DP  RH WIND       PRES   REMARKS
MILLERS CREEK    N/A     48  32  53 NE6         N/A
POSSUM KINGDOM   N/A     52  32  46 SE3         N/A
LBJ GRASSLAND    N/A     52  28  40 CALM        N/A
GRANBURY         N/A     54  32  43 E6          N/A
HAMBY            N/A     48  30  49 SE8         N/A



USA.gov is the U.S. government's official web portal to all federal, state and local government web resources and services.